Weather History for Tracy, MN

Change the Weather History Date:

Saturday, January 4, 2014

  Actual Average (KMML) Record (KMML)
Temperature  
Mean Temperature 18 °F -  
Max Temperature 37 °F 21 °F 53 °F (2012)
Min Temperature -2 °F 2 °F -22 °F (1976)
Degree Days  
Heating Degree Days 48    
Moisture  
Dew Point 5 °F    
Average Humidity 76    
Maximum Humidity 88    
Minimum Humidity 68    
Precipitation  
Precipitation 0.00 in - - ()
Sea Level Pressure  
Sea Level Pressure 29.96 in    
Wind  
Wind Speed 19 mph (NNW)    
Max Wind Speed 33 mph    
Max Gust Speed 41 mph    
Visibility 9 miles    
Events Snow    
Averages and records for this station are not official NWS values.
T = Trace of Precipitation, MM = Missing Value Source: NWS Daily Summary

Daily Weather History Graph

Daily Weather History Graph

Search for Another Location

Airport:

Trip Planner

Search our weather history database for the weather conditions in past years. The results will help you decide how hot, cold, wet, or windy it might be!

Date:

Astronomy

Jan. 04, 2014 Rise Set
Actual Time 7:58 AM CST 4:57 PM CST
Civil Twilight 7:25 AM CST 5:30 PM CST
Nautical Twilight 6:48 AM CST 6:06 PM CST
Astronomical Twilight 6:13 AM CST 6:41 PM CST
Moon 9:55 AM CST (1/4) 9:28 PM CST (1/4)
Length of Visible Light 10h 05m
Length of Day
8h 59m
Waxing Crescent, 15% of the Moon is Illuminated
Jan 4
Waxing Crescent
Jan 7
First Quarter
Jan 15
Full
Jan 23
Last Quarter
Jan 30
New

Hourly Weather History & Observations

Time (CST) Temp. Windchill Dew Point Humidity Pressure Visibility Wind Dir Wind Speed Gust Speed Precip Events Conditions
12:18 AM 36.1 °F 26.9 °F 31.3 °F 83% 29.44 in 10.0 mi WSW 15.0 mph 23.0 mph N/A   Overcast
12:38 AM 35.8 °F 26.5 °F 31.1 °F 83% 29.43 in 10.0 mi WSW 15.0 mph - N/A   Scattered Clouds
12:57 AM 36.0 °F 26.3 °F 31.3 °F 83% 29.45 in 10.0 mi WSW 16.1 mph - N/A   Scattered Clouds
1:17 AM 36.7 °F 28.0 °F 31.6 °F 82% 29.46 in 10.0 mi WSW 13.8 mph 18.4 mph N/A   Scattered Clouds
1:37 AM 37.4 °F 30.3 °F 31.8 °F 80% 29.48 in 10.0 mi West 10.4 mph 17.3 mph N/A   Clear
1:57 AM 37.2 °F 31.9 °F 31.8 °F 81% 29.49 in 10.0 mi West 6.9 mph - N/A   Mostly Cloudy
2:18 AM 28.6 °F 14.3 °F 25.2 °F 87% 29.55 in 7.0 mi NNW 24.2 mph 32.2 mph N/A   Overcast
2:38 AM 23.9 °F 7.5 °F 20.8 °F 88% 29.57 in 5.0 mi NNW 26.5 mph 35.7 mph N/A Snow Light Snow
2:57 AM 20.8 °F 2.5 °F 17.4 °F 87% 29.60 in 5.0 mi NNW 29.9 mph 35.7 mph N/A   Overcast
3:17 AM 19.2 °F 1.2 °F 14.7 °F 83% 29.64 in 10.0 mi NNW 26.5 mph 33.4 mph N/A   Overcast
3:37 AM 17.6 °F -1.3 °F 12.9 °F 82% 29.65 in 7.0 mi NNW 27.6 mph 33.4 mph N/A Snow Light Snow
3:57 AM 16.3 °F -3.3 °F 11.1 °F 80% 29.67 in 7.0 mi NNW 28.8 mph 36.8 mph N/A   Overcast
4:17 AM 15.1 °F -4.7 °F 9.7 °F 79% 29.69 in 7.0 mi NNW 27.6 mph 39.1 mph N/A Snow Light Snow
4:37 AM 14.4 °F -5.7 °F 9.7 °F 82% 29.70 in 4.0 mi NNW 27.6 mph 33.4 mph N/A Snow Light Snow
4:57 AM 12.0 °F -9.2 °F 5.9 °F 76% 29.72 in 10.0 mi NNW 28.8 mph 41.4 mph N/A   Clear
5:18 AM 11.5 °F -9.2 °F 5.9 °F 78% 29.76 in 10.0 mi NNW 26.5 mph 35.7 mph N/A   Clear
5:38 AM 11.3 °F -10.1 °F 6.1 °F 80% 29.78 in 7.0 mi NNW 28.8 mph 36.8 mph N/A   Mostly Cloudy
5:58 AM 11.8 °F -9.1 °F 6.8 °F 80% 29.80 in 7.0 mi NNW 27.6 mph 39.1 mph N/A   Overcast
6:17 AM 12.2 °F -7.9 °F 7.3 °F 81% 29.83 in 2.5 mi NNW 25.3 mph 39.1 mph N/A Snow Light Snow
6:37 AM 11.5 °F -11.2 °F 6.4 °F 80% 29.85 in 2.5 mi NNW 33.4 mph 40.3 mph N/A Snow Light Snow
6:57 AM 10.6 °F -10.0 °F 4.8 °F 78% 29.88 in 10.0 mi NNW 25.3 mph 36.8 mph N/A   Overcast
7:17 AM 10.8 °F -9.4 °F 5.5 °F 79% 29.88 in 5.0 mi NNW 24.2 mph 34.5 mph N/A   Haze
7:38 AM 11.1 °F -9.3 °F 5.9 °F 80% 29.88 in 4.0 mi NNW 25.3 mph 34.5 mph N/A Snow Light Snow
7:58 AM 11.1 °F -7.7 °F 5.5 °F 78% 29.90 in 7.0 mi NNW 20.7 mph 31.1 mph N/A Snow Light Snow
8:18 AM 10.8 °F -7.7 °F 5.0 °F 78% 29.92 in 10.0 mi NNW 19.6 mph 26.5 mph N/A   Scattered Clouds
8:37 AM 10.2 °F -10.1 °F 3.7 °F 75% 29.92 in 10.0 mi North 24.2 mph 29.9 mph N/A   Scattered Clouds
8:57 AM 9.5 °F -11.5 °F 2.5 °F 73% 29.91 in 10.0 mi NNW 25.3 mph 35.7 mph N/A   Clear
9:18 AM 9.9 °F -11.0 °F 1.4 °F 69% 29.95 in 10.0 mi NNW 25.3 mph 32.2 mph N/A   Clear
9:37 AM 10.2 °F -9.7 °F 1.6 °F 68% 29.96 in 10.0 mi North 23.0 mph 34.5 mph N/A   Clear
9:57 AM 10.4 °F -8.2 °F 1.9 °F 69% 29.99 in 10.0 mi North 19.6 mph 28.8 mph N/A   Clear
10:18 AM 10.8 °F -9.4 °F 2.1 °F 68% 29.97 in 10.0 mi North 24.2 mph 31.1 mph N/A   Clear
10:38 AM 10.9 °F -8.8 °F 2.5 °F 69% 29.99 in 10.0 mi North 23.0 mph 29.9 mph N/A   Clear
10:58 AM 10.9 °F -5.9 °F 2.8 °F 70% 30.00 in 10.0 mi North 16.1 mph 25.3 mph N/A   Clear
11:18 AM 11.1 °F -6.7 °F 3.4 °F 71% 30.01 in 10.0 mi North 18.4 mph 23.0 mph N/A   Clear
11:37 AM 11.3 °F -7.0 °F 3.4 °F 70% 30.01 in 10.0 mi North 19.6 mph - N/A   Clear
11:57 AM 11.3 °F -6.5 °F 3.7 °F 72% 30.01 in 10.0 mi North 18.4 mph 26.5 mph N/A   Clear
12:17 PM 11.5 °F -4.1 °F 4.3 °F 73% 30.03 in 10.0 mi NNW 13.8 mph - N/A   Scattered Clouds
12:37 PM 12.0 °F -5.1 °F 5.0 °F 73% 30.04 in 10.0 mi NNW 17.3 mph 26.5 mph N/A   Scattered Clouds
12:57 PM 11.3 °F -4.9 °F 4.8 °F 75% 30.05 in 10.0 mi NNW 15.0 mph 23.0 mph N/A   Mostly Cloudy
1:17 PM 11.3 °F -5.5 °F 5.0 °F 76% 30.04 in 10.0 mi NNW 16.1 mph 25.3 mph N/A   Mostly Cloudy
1:37 PM 11.5 °F -4.7 °F 5.7 °F 78% 30.04 in 7.0 mi North 15.0 mph 21.9 mph N/A   Scattered Clouds
1:58 PM 10.2 °F -8.4 °F 4.1 °F 76% 30.05 in 10.0 mi North 19.6 mph - N/A   Scattered Clouds
2:18 PM 9.7 °F -8.6 °F 3.0 °F 74% 30.06 in 10.0 mi NNW 18.4 mph 21.9 mph N/A   Clear
2:38 PM 9.0 °F -9.0 °F 1.2 °F 71% 30.06 in 10.0 mi NNW 17.3 mph 23.0 mph N/A   Clear
2:58 PM 9.3 °F -10.0 °F 1.6 °F 71% 30.06 in 10.0 mi North 20.7 mph - N/A   Clear
3:18 PM 8.6 °F -9.5 °F 0.3 °F 69% 30.08 in 10.0 mi North 17.3 mph 25.3 mph N/A   Clear
3:38 PM 8.6 °F -8.9 °F 0.9 °F 71% 30.09 in 10.0 mi North 16.1 mph 20.7 mph N/A   Clear
3:58 PM 8.2 °F -10.0 °F 0.7 °F 71% 30.10 in 10.0 mi North 17.3 mph - N/A   Clear
4:18 PM 7.5 °F -9.1 °F 0.3 °F 72% 30.12 in 10.0 mi NNW 13.8 mph - N/A   Clear
4:38 PM 6.8 °F -7.8 °F 0.1 °F 74% 30.13 in 10.0 mi North 10.4 mph - N/A   Clear
4:58 PM 6.8 °F -6.9 °F 0.5 °F 75% 30.14 in 10.0 mi NNW 9.2 mph - N/A   Mostly Cloudy
5:18 PM 6.4 °F -6.3 °F 0.5 °F 77% 30.14 in 10.0 mi NNW 8.1 mph - N/A   Overcast
5:37 PM 5.9 °F -9.7 °F 0.3 °F 78% 30.14 in 10.0 mi NNW 11.5 mph - N/A   Scattered Clouds
5:57 PM 5.9 °F -10.5 °F 0.5 °F 78% 30.15 in 10.0 mi NNW 12.7 mph 17.3 mph N/A   Scattered Clouds
6:18 PM 5.5 °F -8.4 °F 0.5 °F 80% 30.18 in 10.0 mi NNW 9.2 mph - N/A   Scattered Clouds
6:37 PM 4.8 °F -9.3 °F -0.4 °F 79% 30.18 in 10.0 mi NNW 9.2 mph - N/A   Scattered Clouds
6:58 PM 4.1 °F -10.2 °F -1.3 °F 78% 30.19 in 10.0 mi NNW 9.2 mph - N/A   Clear
7:18 PM 4.1 °F -11.1 °F -1.5 °F 78% 30.20 in 10.0 mi NNW 10.4 mph - N/A   Clear
7:37 PM 3.2 °F -10.3 °F -2.2 °F 78% 30.21 in 10.0 mi North 8.1 mph - N/A   Clear
7:58 PM 2.3 °F -12.4 °F -2.4 °F 81% 30.22 in 10.0 mi NNW 9.2 mph - N/A   Clear
8:17 PM 1.8 °F -12.0 °F -3.5 °F 79% 30.23 in 10.0 mi NNW 8.1 mph - N/A   Clear
8:37 PM 1.4 °F -12.5 °F -4.0 °F 78% 30.23 in 10.0 mi NNW 8.1 mph - N/A   Clear
8:58 PM 1.6 °F -14.2 °F -5.1 °F 74% 30.23 in 10.0 mi NNW 10.4 mph 17.3 mph N/A   Clear
9:18 PM 1.0 °F -17.3 °F -5.6 °F 74% 30.24 in 10.0 mi North 13.8 mph - N/A   Clear
9:38 PM 0.5 °F -18.0 °F -6.3 °F 73% 30.24 in 10.0 mi NNW 13.8 mph 19.6 mph N/A   Clear
9:57 PM 0.3 °F -19.6 °F -7.4 °F 70% 30.25 in 10.0 mi NNW 16.1 mph 24.2 mph N/A   Clear
10:18 PM -0.2 °F -20.9 °F -8.0 °F 70% 30.25 in 10.0 mi NNW 17.3 mph 26.5 mph N/A   Clear
10:38 PM -0.9 °F -21.2 °F -8.5 °F 70% 30.25 in 10.0 mi NNW 16.1 mph 21.9 mph N/A   Clear
10:58 PM -1.5 °F -19.8 °F -8.5 °F 72% 30.26 in 10.0 mi NNW 12.7 mph - N/A   Clear
11:17 PM -1.8 °F -21.0 °F -9.0 °F 71% 30.26 in 10.0 mi NNW 13.8 mph - N/A   Clear
11:37 PM -2.2 °F -22.2 °F -9.4 °F 71% 30.26 in 10.0 mi NNW 15.0 mph - N/A   Clear
11:57 PM -2.7 °F -22.1 °F -9.8 °F 72% 30.26 in 10.0 mi North 13.8 mph 18.4 mph N/A   Clear